[[{"header":{"parameterUnit":"m.s-1","parameterCategory":1,"la1":30.2991,"la2":30.254,"lo1":-89.0895,"lo2":-89.0444,"dy":0.0017,"dx":0.0017,"nx":28,"ny":28,"refTime":"2025-08-17T03:00:00:Z","depth":0,"parameterNumber":2,"parameterNumberName":"U-component_of_WINDS"},"data":[0,0,0,0,0,0,0,0,0,0,0,0,0,0,0,0,0,0,0,0,0,0,0,0,0,0,0,0,0,0,0,0,0,0,0,0,0,0,0,0,0,0,0,0,0,0,0,0,0,0,0,0,0,0,0,0,0,0,-0.7123,-0.7123,0,-0.7164,-0.7164,-0.7165,-0.7158,-0.7157,-0.7157,-0.7156,-0.7199,-0.7201,-0.7202,0,0,0,0,0,0,0,0,0,0,0,0,0,-0.7039,-0.704,-0.7123,-0.7123,-0.7124,-0.7164,-0.7164,-0.7165,-0.7158,-0.7157,-0.7156,-0.7156,-0.7198,-0.72,-0.7202,0,0,0,0,0,0,0,0,0,0,0,0,0,-0.7077,-0.7041,-0.7123,-0.7125,-0.7126,-0.7164,-0.7164,-0.7165,-0.7158,-0.7157,-0.7156,-0.7155,-0.7197,-0.72,-0.7203,-0.7241,0,0,-0.7211,-0.7212,0,0,0,0,0,0,0,0,-0.7075,-0.708,-0.7124,-0.7125,-0.7126,-0.7155,-0.715,-0.7191,-0.7159,-0.7146,-0.7156,-0.7155,-0.7185,-0.7189,-0.7199,-0.7243,-0.7245,-0.7211,-0.7213,-0.7214,-0.7215,0,0,0,0,0,0,0,-0.7072,-0.7078,-0.7139,-0.7125,-0.7126,-0.7124,-0.7129,-0.7158,-0.7171,-0.7147,-0.7147,-0.7152,-0.7185,-0.7196,-0.72,-0.7245,-0.7211,-0.7214,-0.7215,-0.7216,-0.7323,-0.7325,0,0,0,0,0,0,-0.7069,-0.7076,-0.7138,-0.714,-0.7097,-0.7127,-0.7132,-0.7147,-0.7171,-0.7173,-0.7152,-0.7151,-0.7192,-0.7197,-0.7201,-0.7249,-0.7214,-0.7217,-0.7218,-0.7322,-0.7324,-0.7325,0,0,0,0,0,0,-0.7067,-0.7074,-0.7136,-0.7108,-0.7116,-0.7129,-0.7146,-0.7148,-0.7159,-0.7175,-0.7177,-0.7161,-0.7191,-0.7197,-0.7231,-0.725,-0.7218,-0.722,-0.7321,-0.7323,-0.7324,-0.7343,0,0,0,0,0,0,-0.7065,-0.7074,-0.7088,-0.7109,-0.7117,-0.7165,-0.7147,-0.715,-0.7164,-0.7162,-0.7184,-0.7186,-0.7191,-0.7227,-0.7234,-0.7253,-0.7222,-0.7319,-0.7322,-0.7324,-0.7341,-0.7345,-0.7349,0,0,0,0,0,-0.7062,-0.7092,-0.7089,-0.7097,-0.7136,-0.7166,-0.7172,-0.7176,-0.7165,-0.718,-0.719,-0.7186,-0.7246,-0.7231,-0.7238,-0.7258,-0.7318,-0.7321,-0.7324,-0.7339,-0.7344,-0.7349,0,0,0,0,0,0,-0.7074,-0.7095,-0.7092,-0.713,-0.7146,-0.7165,-0.7185,-0.7182,-0.7202,-0.72,-0.7205,-0.721,-0.7245,-0.7254,-0.7237,-0.7297,-0.7281,-0.7285,-0.729,-0.7295,-0.7299,-0.7297,-0.7225,0,0,0,0,0,-0.7081,-0.7104,-0.7121,-0.7152,-0.7161,-0.7171,-0.7185,-0.7187,-0.7204,-0.7212,-0.7224,-0.7242,-0.7265,-0.728,-0.7302,-0.7341,-0.7346,-0.7359,-0.7363,-0.7366,-0.737,-0.7393,-0.7399,-0.7334,-0.7334,-0.7334,0,0,-0.7096,-0.711,-0.7125,-0.7155,-0.7168,-0.7193,-0.7177,-0.7203,-0.7221,-0.7215,-0.7249,-0.7258,-0.7278,-0.7315,-0.7332,-0.7324,-0.7389,-0.7369,-0.7372,-0.7375,-0.7396,-0.7402,-0.7408,-0.7336,-0.7335,-0.7335,0,0,-0.7136,-0.7149,-0.7177,-0.719,-0.721,-0.7217,-0.7223,-0.7243,-0.7249,-0.7282,-0.7278,-0.73,-0.7339,-0.7354,-0.7366,-0.7411,-0.7408,-0.7417,-0.744,-0.7462,-0.7467,-0.7471,-0.7489,-0.7495,-0.7421,-0.7421,-0.7421,0,-0.7153,-0.7189,-0.7192,-0.7218,-0.7232,-0.7227,-0.7256,-0.7269,-0.7295,-0.7305,-0.7296,-0.7345,-0.7358,-0.7399,-0.741,-0.742,-0.7428,-0.7416,-0.7466,-0.747,-0.7475,-0.7492,-0.7498,-0.7423,-0.7422,-0.7422,-0.7422,0,-0.7209,-0.7234,-0.7254,-0.728,-0.7295,-0.7323,-0.733,-0.7346,-0.7346,-0.7353,-0.7387,-0.7402,-0.7428,-0.7437,-0.7437,-0.7478,-0.7473,-0.7464,-0.7449,-0.7482,-0.7498,-0.7504,-0.7424,-0.7424,-0.7424,-0.7423,0,0,-0.726,-0.7286,-0.7294,-0.7306,-0.7327,-0.7346,-0.7373,-0.7398,-0.7412,-0.7429,-0.7453,-0.7486,-0.7478,-0.7492,-0.7494,-0.7513,-0.7549,-0.7503,-0.7503,-0.7512,-0.7596,-0.7604,-0.7611,-0.7546,-0.7547,-0.7548,-0.7595,0,-0.7304,-0.7352,-0.7355,-0.7399,-0.7422,-0.7417,-0.7441,-0.7457,-0.7464,-0.7485,-0.7493,-0.7517,-0.7504,-0.7513,-0.7531,-0.7541,-0.7566,-0.7537,-0.757,-0.7571,-0.7567,-0.762,-0.7628,-0.7672,-0.7601,-0.7602,-0.7603,0,-0.7362,-0.7381,-0.7428,-0.7446,-0.7456,-0.7477,-0.75,-0.7519,-0.7537,-0.7541,-0.7556,-0.7556,-0.7584,-0.7565,-0.7604,-0.7585,-0.7597,-0.7604,-0.7606,-0.7611,-0.7591,-0.7628,-0.7685,-0.7693,-0.7613,-0.7612,-0.7611,0,-0.7397,-0.7435,-0.7467,-0.7477,-0.7499,-0.7514,-0.7523,-0.754,-0.7554,-0.7574,-0.7584,-0.7606,-0.7619,-0.7637,-0.7642,-0.7627,-0.7682,-0.7663,-0.7687,-0.7687,-0.7701,-0.77,-0.7763,-0.7705,-0.7705,-0.7705,-0.7705,0,-0.7447,-0.7476,-0.7484,-0.7504,-0.7536,-0.7539,-0.7571,-0.7579,-0.7594,-0.7616,-0.7612,-0.7633,-0.7637,-0.7659,-0.7663,-0.7696,-0.7701,-0.7706,-0.7707,-0.7708,-0.7708,-0.7718,-0.7716,-0.7707,-0.7706,-0.7706,-0.7706,0,-0.7493,-0.7499,-0.7535,-0.7551,-0.7556,-0.758,-0.7594,-0.7614,-0.762,-0.7648,-0.7655,-0.7665,-0.769,-0.7697,-0.7727,-0.773,-0.7769,-0.7766,-0.7763,-0.7764,-0.7788,-0.7787,-0.7862,-0.7873,-0.7806,-0.7806,-0.7807,0,-0.7526,-0.7548,-0.7567,-0.7581,-0.7592,-0.7615,-0.763,-0.7632,-0.7648,-0.7669,-0.7687,-0.7711,-0.7732,-0.7773,-0.7783,-0.7807,-0.7806,-0.783,-0.7809,-0.7809,-0.7808,-0.7808,-0.7811,-0.7835,-0.7836,-0.7836,-0.7837,0,-0.7584,-0.7585,-0.7607,-0.7629,-0.7647,-0.7664,-0.7681,-0.7693,-0.7698,-0.7716,-0.7742,-0.7758,-0.7789,-0.7814,-0.7837,-0.7847,-0.7844,-0.7843,-0.785,-0.7852,-0.7851,-0.7854,-0.7777,-0.7842,-0.7841,-0.7841,-0.7841,-0.7841,-0.7625,-0.7645,-0.7662,-0.7686,-0.7698,-0.7714,-0.7734,-0.7742,-0.7764,-0.7789,-0.7789,-0.7818,-0.7834,-0.7865,-0.7877,-0.7899,-0.7892,-0.7902,-0.7905,-0.7908,-0.7911,-0.7845,-0.7903,-0.7903,-0.7903,-0.7903,-0.7903,0,-0.7685,-0.7695,-0.7717,-0.7741,-0.7759,-0.7753,-0.7771,-0.7787,-0.7813,-0.7828,-0.7848,-0.7878,-0.7902,-0.7914,-0.7938,-0.7954,-0.7953,-0.796,-0.7961,-0.7963,-0.7915,-0.7907,-0.7961,-0.7961,-0.7961,-0.7961,-0.7961,-0.7961,-0.7718,-0.7752,-0.7755,-0.7795,-0.7805,-0.7833,-0.7844,-0.7859,-0.7871,-0.7905,-0.7925,-0.7932,-0.7946,-0.7971,-0.7993,-0.7996,-0.8006,-0.8015,-0.8017,-0.7972,-0.7966,-0.7961,-0.7954,-0.8016,-0.8017,-0.8064,-0.8064,-0.8064]},{"header":{"parameterUnit":"m.s-1","parameterCategory":1,"la1":30.2991,"la2":30.254,"lo1":-89.0895,"lo2":-89.0444,"dy":0.0017,"dx":0.0017,"nx":28,"ny":28,"refTime":"2025-08-17T03:00:00:Z","depth":0,"parameterNumber":3,"parameterNumberName":"V-component_of_WINDS"},"data":[0,0,0,0,0,0,0,0,0,0,0,0,0,0,0,0,0,0,0,0,0,0,0,0,0,0,0,0,0,0,0,0,0,0,0,0,0,0,0,0,0,0,0,0,0,0,0,0,0,0,0,0,0,0,0,0,0,0,-1.2245,-1.2245,0,-1.2189,-1.2189,-1.2188,-1.2128,-1.2127,-1.2126,-1.2125,-1.2066,-1.2065,-1.2064,0,0,0,0,0,0,0,0,0,0,0,0,0,-1.2299,-1.2298,-1.2245,-1.2245,-1.2244,-1.2189,-1.2189,-1.2188,-1.2128,-1.2127,-1.2126,-1.2125,-1.2066,-1.2065,-1.2064,0,0,0,0,0,0,0,0,0,0,0,0,0,-1.2262,-1.2298,-1.2246,-1.2208,-1.2204,-1.219,-1.2189,-1.2188,-1.2128,-1.2127,-1.2125,-1.2124,-1.2066,-1.2065,-1.2064,-1.2082,0,0,-1.206,-1.206,0,0,0,0,0,0,0,0,-1.2265,-1.226,-1.2214,-1.221,-1.2206,-1.2164,-1.2185,-1.2152,-1.2128,-1.2157,-1.2125,-1.2124,-1.2099,-1.2095,-1.2088,-1.2079,-1.2077,-1.206,-1.2059,-1.2059,-1.2059,0,0,0,0,0,0,0,-1.2267,-1.2263,-1.2223,-1.2213,-1.2208,-1.2193,-1.2186,-1.2179,-1.2136,-1.2154,-1.215,-1.2144,-1.2097,-1.2089,-1.2086,-1.2076,-1.206,-1.2059,-1.2058,-1.2058,-1.208,-1.2081,0,0,0,0,0,0,-1.2276,-1.2265,-1.2225,-1.2221,-1.2233,-1.2193,-1.2185,-1.2179,-1.2136,-1.2128,-1.2145,-1.2141,-1.2091,-1.2087,-1.2083,-1.2102,-1.2059,-1.2058,-1.2057,-1.2078,-1.208,-1.2081,0,0,0,0,0,0,-1.2277,-1.2273,-1.2227,-1.2242,-1.2235,-1.2193,-1.2186,-1.2178,-1.217,-1.2129,-1.2121,-1.2145,-1.209,-1.2085,-1.2083,-1.2099,-1.2057,-1.2056,-1.2077,-1.2079,-1.2081,-1.2139,0,0,0,0,0,0,-1.2279,-1.2274,-1.228,-1.2243,-1.2235,-1.2229,-1.2187,-1.2178,-1.2169,-1.2163,-1.2127,-1.2119,-1.2089,-1.2085,-1.2082,-1.2096,-1.2055,-1.2075,-1.2078,-1.208,-1.2135,-1.2143,-1.2149,0,0,0,0,0,-1.2281,-1.2299,-1.2281,-1.2277,-1.2242,-1.223,-1.2225,-1.219,-1.217,-1.2177,-1.215,-1.212,-1.2098,-1.2085,-1.2081,-1.2096,-1.2074,-1.2077,-1.208,-1.2132,-1.2141,-1.2149,0,0,0,0,0,0,-1.2339,-1.2293,-1.2273,-1.2279,-1.2259,-1.2219,-1.2226,-1.2201,-1.2185,-1.218,-1.2137,-1.2129,-1.2132,-1.2114,-1.2101,-1.2111,-1.2082,-1.2084,-1.2123,-1.2131,-1.2138,-1.2142,-1.2054,0,0,0,0,0,-1.2352,-1.2346,-1.2306,-1.2316,-1.2307,-1.2269,-1.2262,-1.2237,-1.2213,-1.2204,-1.2177,-1.2156,-1.2143,-1.2136,-1.2123,-1.2133,-1.2123,-1.214,-1.2147,-1.2153,-1.2155,-1.2159,-1.2166,-1.2091,-1.2091,-1.2091,0,0,-1.238,-1.2354,-1.2353,-1.2327,-1.2308,-1.2302,-1.2262,-1.2257,-1.2252,-1.2203,-1.22,-1.218,-1.2152,-1.2156,-1.2157,-1.2141,-1.2174,-1.2157,-1.2161,-1.216,-1.2162,-1.2169,-1.2176,-1.2093,-1.2092,-1.2092,0,0,-1.2428,-1.2408,-1.2414,-1.2396,-1.2368,-1.2343,-1.2344,-1.2309,-1.2294,-1.229,-1.2253,-1.2246,-1.2226,-1.2208,-1.2196,-1.2238,-1.221,-1.2234,-1.2269,-1.2273,-1.2279,-1.2284,-1.2299,-1.2304,-1.2237,-1.2237,-1.2237,0,-1.2466,-1.2456,-1.2419,-1.2417,-1.2407,-1.2363,-1.2368,-1.2352,-1.2322,-1.2315,-1.2298,-1.2272,-1.225,-1.225,-1.226,-1.2252,-1.2252,-1.2238,-1.2281,-1.2286,-1.229,-1.2303,-1.2309,-1.224,-1.224,-1.2239,-1.2239,0,-1.2504,-1.2498,-1.2505,-1.2478,-1.2468,-1.2469,-1.2432,-1.2427,-1.2403,-1.2379,-1.2375,-1.2348,-1.2328,-1.2326,-1.2303,-1.2322,-1.2313,-1.2289,-1.2259,-1.2301,-1.2313,-1.2318,-1.2245,-1.2244,-1.2243,-1.2242,0,0,-1.2586,-1.2538,-1.2542,-1.2528,-1.2495,-1.2489,-1.2489,-1.247,-1.2466,-1.2446,-1.2444,-1.2429,-1.2406,-1.2393,-1.2367,-1.2371,-1.2405,-1.2346,-1.2345,-1.2358,-1.2424,-1.2442,-1.2449,-1.2386,-1.2387,-1.2388,-1.2426,0,-1.2627,-1.2624,-1.2591,-1.2597,-1.2591,-1.255,-1.2549,-1.2528,-1.2506,-1.2497,-1.2472,-1.2462,-1.2433,-1.2425,-1.2427,-1.24,-1.2417,-1.2397,-1.2383,-1.2383,-1.2391,-1.2455,-1.2474,-1.2511,-1.2431,-1.2431,-1.2432,0,-1.2675,-1.2659,-1.2665,-1.2631,-1.2628,-1.2628,-1.2608,-1.26,-1.2575,-1.2559,-1.2545,-1.2515,-1.2512,-1.2483,-1.2477,-1.2464,-1.2457,-1.2443,-1.2444,-1.2441,-1.241,-1.2453,-1.2522,-1.2528,-1.2439,-1.2438,-1.2438,0,-1.2734,-1.2714,-1.2715,-1.2705,-1.2666,-1.2667,-1.2651,-1.2625,-1.2616,-1.2598,-1.2592,-1.2574,-1.2564,-1.2551,-1.2517,-1.25,-1.2515,-1.2484,-1.2501,-1.2502,-1.2506,-1.2506,-1.2574,-1.2501,-1.2501,-1.2501,-1.2501,0,-1.2784,-1.2789,-1.2741,-1.2741,-1.2746,-1.2708,-1.2713,-1.2692,-1.267,-1.2665,-1.2628,-1.2624,-1.258,-1.2571,-1.2545,-1.2544,-1.254,-1.2526,-1.2519,-1.2529,-1.2531,-1.2523,-1.252,-1.2503,-1.2502,-1.2502,-1.2502,0,-1.285,-1.2818,-1.2817,-1.278,-1.2771,-1.2776,-1.2744,-1.2743,-1.2719,-1.2713,-1.271,-1.2671,-1.2659,-1.2624,-1.2603,-1.2585,-1.2591,-1.2578,-1.26,-1.2595,-1.2614,-1.2613,-1.268,-1.2686,-1.261,-1.2611,-1.2611,0,-1.2884,-1.2887,-1.2851,-1.2846,-1.2831,-1.2823,-1.2814,-1.2776,-1.2768,-1.2741,-1.2742,-1.2727,-1.2713,-1.2695,-1.2665,-1.2648,-1.2634,-1.2659,-1.2631,-1.2641,-1.2634,-1.2634,-1.2634,-1.2665,-1.2666,-1.2667,-1.2667,0,-1.2947,-1.2931,-1.292,-1.2903,-1.2893,-1.2878,-1.286,-1.2858,-1.2816,-1.2809,-1.2796,-1.2785,-1.2764,-1.2749,-1.2727,-1.2709,-1.2681,-1.2676,-1.2679,-1.2689,-1.2702,-1.2695,-1.2616,-1.2675,-1.2674,-1.2673,-1.2673,-1.2673,-1.2998,-1.2998,-1.2973,-1.2962,-1.2945,-1.293,-1.2927,-1.2902,-1.2891,-1.2872,-1.285,-1.284,-1.2814,-1.2783,-1.2767,-1.2758,-1.2743,-1.2748,-1.2748,-1.275,-1.2755,-1.2704,-1.2754,-1.2754,-1.2754,-1.2753,-1.2753,0,-1.3058,-1.304,-1.303,-1.3008,-1.2998,-1.2974,-1.2953,-1.2947,-1.2939,-1.2918,-1.2905,-1.289,-1.2876,-1.2845,-1.2827,-1.2826,-1.2812,-1.2822,-1.2822,-1.2818,-1.2769,-1.2768,-1.2834,-1.2834,-1.2834,-1.2834,-1.2834,-1.2834,-1.3089,-1.3089,-1.307,-1.3062,-1.3043,-1.3033,-1.3024,-1.3009,-1.2993,-1.2978,-1.2966,-1.2946,-1.2921,-1.2902,-1.2887,-1.2878,-1.2873,-1.2888,-1.2875,-1.2829,-1.2822,-1.2814,-1.2813,-1.2887,-1.2887,-1.2924,-1.2925,-1.2925]}]]